Flag for U.S.A. Weather past 2 weeks in Columbus, Georgia, U.S.A.

Now
50 °F

Clear.


Feels Like: 48 °F
Forecast: 34 / 61 °F
Wind: 5 mph from Southeast

Location: Columbus Metropolitan Airport

Current Time: Jan 28, 2015 at 7:18:19 PM

Latest Report: Jan 28, 2015 at 6:51 PM


Visibility: 10 mi

Pressure: 30.24 "Hg

Humidity: 43%

Dew point: 28 °F

Location of ColumbusLocation

Historic Weather in Columbus — Graph

°F

Columbus temperature yesterday

Maximum temperature yesterday: 58 °F (at 2:51 PM)
Minimum temperature yesterday: 32 °F (at 6:51 AM)
Average temperature yesterday: 45 °F

Past Weeks' High & Low Weather Summary

 TemperatureHumidityPressure
High68 °F (Jan 19, 3:51 PM)100% (Jan 23, 3:51 PM)30.30 "Hg (Jan 23, 3:51 PM)
Low30 °F (Jan 19, 7:51 AM)16% (Jan 19, 4:51 PM)29.75 "Hg (Jan 24, 1:51 AM)
Average47 °F66%30.08 "Hg
* Reported Jan 13 5:51 PM — Jan 28 5:51 PM, Columbus, Weather by CustomWeather, © 2014

Note: Actual official high and low records may vary slightly from our data, if they occured in-between our weather recording intervals... More about our weather records

Advertising

Columbus weather history for previous 24 hours

 ConditionsComfort  
Time TempWeatherWind HumidityBarometerVisibility
5:51 PM
Jan 28
53 °FSunny.6 mph37%30.24 "Hg10 mi
4:51 PM57 °FSunny.3 mph31%30.24 "Hg10 mi
3:51 PM57 °FSunny.No wind31%30.22 "Hg10 mi
2:51 PM55 °FSunny.3 mph34%30.23 "Hg10 mi
1:51 PM53 °FSunny.5 mph37%30.24 "Hg10 mi
12:51 PM50 °FSunny.No wind41%30.27 "Hg10 mi
11:51 AM48 °FSunny.6 mph44%30.29 "Hg10 mi
10:51 AM45 °FSunny.No wind49%30.30 "Hg10 mi
9:51 AM40 °FSunny.10 mph58%30.28 "Hg10 mi
8:51 AM37 °FSunny.6 mph65%30.27 "Hg10 mi
7:51 AM33 °FSunny.No wind78%30.25 "Hg10 mi
6:51 AM32 °FClear.No wind82%30.21 "Hg10 mi
5:51 AM35 °FClear.7 mph72%30.19 "Hg10 mi
4:51 AM35 °FClear.5 mph75%30.16 "Hg10 mi
3:51 AM36 °FClear.5 mph73%30.15 "Hg10 mi
2:51 AM37 °FClear.No wind73%30.15 "Hg10 mi
1:51 AM38 °FClear.No wind70%30.14 "Hg10 mi
12:51 AM40 °FClear.3 mph65%30.13 "Hg10 mi
11:51 PM
Jan 27
42 °FClear.6 mph60%30.12 "Hg10 mi
10:51 PM44 °FClear.5 mph55%30.11 "Hg10 mi
9:51 PM46 °FClear.6 mph50%30.09 "Hg10 mi
8:51 PM48 °FClear.7 mph46%30.08 "Hg10 mi
7:51 PM49 °FClear.3 mph44%30.06 "Hg10 mi
Weather by CustomWeather, © 2014

See weather overviewHow to use our weather pages